Regional Weather Roundup
Issued by NWS

Home | Current Version | Previous Version | Text Only | Print | Product List | Glossary On
Versions: 1 2 3 4 5 6 7 8 9 10 11 12 13 14 15 16 17 18 19 20 21 22 23 24 25 26 27 28 29 30 31 32 33 34 35 36 37 38 39 40 41 42 43 44 45 46 47 48 49 50
000
ASUS46 KPQR 021210
RWROR

OREGON REGIONAL WEATHER ROUNDUP
NATIONAL WEATHER SERVICE PORTLAND OR
500 AM PDT TUE SEP 02 2014

NOTE: "FAIR" INDICATES FEW OR NO CLOUDS BELOW 12,000 FEET WITH
NO SIGNIFICANT WEATHER AND/OR OBSTRUCTIONS TO VISIBILITY.

ORZ001>013-021300-
NORTHWEST OREGON


CITY           SKY/WX    TMP DP  RH WIND       PRES   REMARKS
ASTORIA        CLOUDY    59  56  89 NW9       29.98S
6HR MIN TEMP:  58; 6HR MAX TEMP:  63;

NEWPORT        FOG       54  54 100 CALM      29.99F VSB 1/2
PORTLAND       PTCLDY    61  57  87 NW5       29.96S
6HR MIN TEMP:  61; 6HR MAX TEMP:  67;

VANCOUVER WA   CLEAR     61  55  81 CALM      29.95S
6HR MIN TEMP:  60; 6HR MAX TEMP:  66;

SCAPPOOSE      CLEAR     59  54  83 N3        29.95F
6HR MIN TEMP:  59; 6HR MAX TEMP:  65;

HILLSBORO      CLEAR     58  54  86 W7        29.95F
6HR MIN TEMP:  58; 6HR MAX TEMP:  64;

AURORA         MOCLDY    59  56  89 CALM      29.96F
6HR MIN TEMP:  58; 6HR MAX TEMP:  66;

MCMINNVILLE    PTCLDY    58  55  90 NW5       29.97S
6HR MIN TEMP:  56; 6HR MAX TEMP:  64;

SALEM          MOCLDY    60  56  86 NW6       29.94F
6HR MIN TEMP:  59; 6HR MAX TEMP:  66;

CORVALLIS      CLEAR     57  55  94 NW8       29.96S
EUGENE         CLEAR     55  52  89 N6        29.95S
6HR MIN TEMP:  55; 6HR MAX TEMP:  65;

$$

ORZ021-028-021300-
SOUTHWEST OREGON


CITY           SKY/WX    TMP DP  RH WIND       PRES   REMARKS
NORTH BEND     CLOUDY    57  57 100 N10       29.95F
6HR MIN TEMP:  57; 6HR MAX TEMP:  61;

BROOKINGS      SUNNY     55  54  97 CALM      29.85S
ROSEBURG       CLEAR     60  51  72 CALM      29.93S
6HR MIN TEMP:  58; 6HR MAX TEMP:  70;

SEXTON SUMMIT  CLEAR     57  47  69 N14       29.98F
6HR MIN TEMP:  55; 6HR MAX TEMP:  60;

MEDFORD        CLEAR     59  48  67 SE5       29.91S
6HR MIN TEMP:  59; 6HR MAX TEMP:  71;

$$

ORZ009-041-021300-
COLUMBIA GORGE


CITY           SKY/WX    TMP DP  RH WIND       PRES   REMARKS
TROUTDALE      CLOUDY    64  57  78 CALM      29.94S
6HR MIN TEMP:  63; 6HR MAX TEMP:  67;

THE DALLES     CLEAR     58  51  78 VRB5      29.89F
6HR MIN TEMP:  56; 6HR MAX TEMP:  68;

$$

ORZ029>031-042>050-061>064-021300-
EASTERN OREGON


CITY           SKY/WX    TMP DP  RH WIND       PRES   REMARKS
REDMOND        CLEAR     45  40  82 S6        29.97F
6HR MIN TEMP:  45; 6HR MAX TEMP:  61;

BEND           MOSUNNY   46  41  81 SW6       29.99F
KLAMATH FALLS  CLEAR     42  37  82 CALM      29.99F
6HR MIN TEMP:  41; 6HR MAX TEMP:  54;

LAKEVIEW       PTCLDY    37  28  70 N8        30.04S WCI  31
HERMISTON      CLEAR     51  46  83 SE5       29.88F
6HR MIN TEMP:  51; 6HR MAX TEMP:  68;

PENDLETON      CLEAR     55  43  63 SE9       29.90F
6HR MIN TEMP:  51; 6HR MAX TEMP:  62;

JOHN DAY       SUNNY     51  36  56 SE9       29.99S
MEACHAM        CLEAR     35  34  96 CALM      29.98F
6HR MIN TEMP:  35; 6HR MAX TEMP:  45;

LA GRANDE      CLEAR     43  30  61 CALM      29.95F
6HR MIN TEMP:  43; 6HR MAX TEMP:  55;

BAKER CITY     CLEAR     37  36  96 CALM      29.98F
6HR MIN TEMP:  37; 6HR MAX TEMP:  48;

BURNS          PTCLDY    37  26  64 CALM      30.01F
6HR MIN TEMP:  36; 6HR MAX TEMP:  52;

ROME             N/A     45  26  47 S7        30.00S
6HR MIN TEMP:  45; 6HR MAX TEMP:  59;

ONTARIO        CLEAR     47  39  74 CALM      29.97S
6HR MIN TEMP:  47; 6HR MAX TEMP:  58;

$$



USA.gov is the U.S. government's official web portal to all federal, state and local government web resources and services.